Weather History for KSPS - January, 2013

Change the Weather History Date:

Wednesday, January 9, 2013

  Actual Average Record
Temperature  
Mean Temperature 50 °F 42 °F  
Max Temperature 53 °F 54 °F 81 °F (1957)
Min Temperature 47 °F 30 °F 4 °F (1977)
Degree Days  
Heating Degree Days 15 23  
Month to date heating degree days 230 215  
Since 1 July heating degree days 1275 1412  
Moisture  
Dew Point 48 °F    
Average Humidity 97    
Maximum Humidity 100    
Minimum Humidity 93    
Precipitation  
Precipitation 0.24 in 0.03 in 1.33 in (1991)
Month to date precipitation 0.31 0.33  
Year to date precipitation 0.31 0.33  
Snow  
Snow 0.00 in 0.10 in - ()
Month to date snowfall T 0.5  
Since 1 July snowfall 3.5 1.8  
Snow Depth -    
Sea Level Pressure  
Sea Level Pressure 30.11 in    
Wind  
Wind Speed 16 mph (NE)    
Max Wind Speed 26 mph    
Max Gust Speed 32 mph    
Visibility 4 miles    
Events Rain    
T = Trace of Precipitation, MM = Missing Value Source: NWS Daily Summary

Daily Weather History Graph

Daily Weather History Graph

Search for Another Location

Airport or City:

Trip Planner

Search our weather history database for the weather conditions in past years. The results will help you decide how hot, cold, wet, or windy it might be!

Date:

Astronomy

Jan. 09, 2013 Rise Set
Actual Time 7:39 AM CST 5:42 PM CST
Civil Twilight 7:12 AM CST 6:10 PM CST
Nautical Twilight 6:41 AM CST 6:41 PM CST
Astronomical Twilight 6:11 AM CST 7:11 PM CST
Moon 5:20 AM CST (1/9) 3:46 PM CST (1/9)
Length of Visible Light 10h 57m
Length of Day
10h 02m
Waning Crescent, 6% of the Moon is Illuminated
Jan 9
Waning Crescent
Jan 11
New
Jan 18
First Quarter
Jan 26
Full
Feb 3
Last Quarter

Hourly Weather History & Observations

Time (CST) Temp. Windchill Dew Point Humidity Pressure Visibility Wind Dir Wind Speed Gust Speed Precip Events Conditions
12:02 AM 46.4 °F 43.5 °F 46.4 °F 100% 30.13 in 8.0 mi NE 5.8 mph - N/A   Overcast
12:40 AM 48.2 °F - 46.4 °F 93% 30.14 in 7.0 mi ENE 9.2 mph - N/A   Overcast
12:52 AM 48.0 °F - 46.0 °F 93% 30.15 in 7.0 mi NE 6.9 mph - N/A   Overcast
1:52 AM 48.0 °F - 46.0 °F 93% 30.13 in 7.0 mi North 8.1 mph - N/A   Overcast
2:52 AM 46.9 °F - 46.0 °F 97% 30.11 in 7.0 mi North 9.2 mph - N/A   Overcast
3:52 AM 48.0 °F - 46.0 °F 93% 30.13 in 7.0 mi North 13.8 mph - N/A   Overcast
4:52 AM 46.9 °F - 46.0 °F 97% 30.15 in 6.0 mi North 10.4 mph - N/A   Overcast
5:52 AM 46.9 °F - 46.0 °F 97% 30.17 in 5.0 mi NNE 12.7 mph - N/A   Overcast
6:52 AM 48.0 °F - 46.9 °F 96% 30.18 in 3.0 mi NNE 16.1 mph - N/A   Overcast
7:52 AM 48.0 °F - 46.9 °F 96% 30.17 in 4.0 mi NNE 15.0 mph - N/A   Overcast
8:04 AM 48.2 °F - 46.4 °F 93% 30.18 in 2.0 mi NNE 17.3 mph - N/A   Overcast
8:21 AM 48.2 °F - 46.4 °F 93% 30.19 in 2.0 mi NNE 15.0 mph - N/A   Overcast
8:36 AM 48.2 °F - 46.4 °F 93% 30.21 in 4.0 mi NNE 17.3 mph - N/A   Overcast
8:52 AM 48.9 °F - 46.9 °F 93% 30.21 in 5.0 mi NNE 16.1 mph - N/A   Overcast
9:00 AM 48.2 °F - 46.4 °F 93% 30.21 in 6.0 mi NE 17.3 mph - N/A   Overcast
9:52 AM 48.9 °F - 46.9 °F 93% 30.22 in 3.0 mi NE 17.3 mph - N/A   Overcast
9:59 AM 48.2 °F - 48.2 °F 100% 30.22 in 2.0 mi NE 16.1 mph - 0.00 in Rain Light Rain
10:13 AM 48.2 °F - 48.2 °F 100% 30.21 in 5.0 mi NNE 16.1 mph - 0.00 in   Overcast
10:52 AM 48.2 °F - 48.2 °F 100% 30.20 in 9.0 mi NE 19.6 mph - N/A   Overcast
11:52 AM 50.0 °F - 48.9 °F 96% 30.17 in 7.0 mi NNE 21.9 mph 27.6 mph 0.01 in Rain Light Rain
12:26 PM 48.2 °F - 48.2 °F 100% 30.13 in 2.0 mi NNE 19.6 mph - 0.00 in Rain Light Rain
12:33 PM 48.2 °F - 48.2 °F 100% 30.12 in 1.8 mi NNE 19.6 mph - 0.00 in Rain Light Rain
12:40 PM 48.2 °F - 48.2 °F 100% 30.11 in 2.0 mi NNE 19.6 mph - 0.00 in   Overcast
12:52 PM 48.9 °F - 48.0 °F 97% 30.10 in 2.0 mi NNE 19.6 mph - 0.00 in   Overcast
1:08 PM 48.2 °F - 48.2 °F 100% 30.10 in 3.0 mi NNE 19.6 mph 28.8 mph N/A   Overcast
1:19 PM 48.2 °F - 48.2 °F 100% 30.10 in 4.0 mi NNE 20.7 mph - N/A   Overcast
1:52 PM 48.9 °F - 48.0 °F 97% 30.10 in 5.0 mi NNE 19.6 mph - N/A   Overcast
2:47 PM 50.0 °F - 48.2 °F 94% 30.08 in 1.8 mi NE 23.0 mph 28.8 mph 0.01 in Rain Light Rain
2:48 PM 50.0 °F - 48.9 °F 96% 30.08 in 1.8 mi NE 21.9 mph 28.8 mph 0.01 in Rain Light Rain
3:03 PM 50.0 °F - 48.2 °F 94% 30.08 in 2.5 mi NE 21.9 mph 28.8 mph 0.00 in Rain Light Rain
3:23 PM 50.0 °F - 48.2 °F 94% 30.07 in 1.8 mi NE 24.2 mph 32.2 mph 0.00 in Rain Light Rain
3:34 PM 50.0 °F - 48.2 °F 94% 30.08 in 2.0 mi NE 21.9 mph 32.2 mph 0.00 in Rain Light Rain
3:52 PM 50.0 °F - 48.9 °F 96% 30.09 in 2.5 mi NE 21.9 mph 26.5 mph 0.00 in   Overcast
4:44 PM 50.0 °F - 50.0 °F 100% 30.08 in 1.5 mi NE 20.7 mph - 0.04 in Rain Rain
4:52 PM 50.0 °F - 50.0 °F 100% 30.07 in 1.5 mi NE 19.6 mph - 0.04 in Rain Rain
5:42 PM 51.8 °F - 50.0 °F 94% 30.05 in 2.5 mi NE 23.0 mph 29.9 mph 0.02 in Rain Light Rain
5:52 PM 51.1 °F - 50.0 °F 96% 30.05 in 2.5 mi NE 23.0 mph 28.8 mph 0.02 in   Overcast
6:52 PM 51.1 °F - 51.1 °F 100% 30.02 in 2.5 mi NE 23.0 mph 29.9 mph 0.04 in Rain Light Rain
6:59 PM 51.8 °F - 51.8 °F 100% 30.03 in 3.0 mi NE 21.9 mph 31.1 mph 0.00 in Rain Light Rain
7:52 PM 52.0 °F - 51.1 °F 97% 30.04 in 3.0 mi ENE 19.6 mph 26.5 mph 0.02 in Rain Light Rain
8:52 PM 53.1 °F - 52.0 °F 96% 30.04 in 7.0 mi East 16.1 mph - 0.00 in Rain Light Rain
9:40 PM 53.6 °F - 51.8 °F 94% 30.04 in 2.5 mi East 13.8 mph - 0.01 in Rain Light Rain
9:52 PM 53.1 °F - 52.0 °F 96% 30.03 in 3.0 mi East 13.8 mph - 0.05 in Rain Light Rain
10:52 PM 53.1 °F - 52.0 °F 96% 30.02 in 10.0 mi ENE 12.7 mph - 0.01 in   Overcast
11:52 PM 53.1 °F - 52.0 °F 96% 30.00 in 3.0 mi East 11.5 mph - 0.04 in Rain Light Rain